sat.trackr.live / text

‹ back to catalog

STARLINK-11104 [DTC]

NORAD 59763 · 2024-091L

PAYLOAD ACTIVE UNKNOWN

§ Identity

Operator
Country
US
Launch date
2024-05-14
Launch site
AFWTR
Launch vehicle
Mass (kg)
RCS (m²)

Purposes: comms

External: N2YO · Heavens-Above · Gunter

§ Orbital elements

Epoch: 2026-05-25T03:18:53.429760Z

Period
91.74 min
Inclination
53.1582°
Eccentricity
0.0001066
Mean motion
15.69692908 rev/d
Perigee alt
359.1 km
Apogee alt
360.5 km
Semi-major
6,737.9 km
B*
-5.7111e-6
RAAN
189.1609°
Arg perigee
116.1083°
Mean anomaly
244.0045°
Rev number
11,752

§ Raw data

STARLINK-11104 [DTC]1 59763U 24091L   26145.13811840 -.00001280  00000+0 -57111-5 0  99922 59763  53.1582 189.1609 0001066 116.1083 244.0045 15.69692908117523

JSON: /api/v1/satellites/59763 · /tle

For live sub-satellite position, see the globe view (requires WebGL).

§ Visibility from observer

Set your observer location to see the next 7 days of passes ≥ 10°. The values pass through the URL so the page stays shareable.

No JS? Fill the form by hand. The geolocation button needs JavaScript.